Weather History for Greybull, WY

Change the Weather History Date:

Friday, July 5, 2013

  Actual Average Record
Temperature  
Mean Temperature 76 °F 72 °F  
Max Temperature 88 °F 88 °F 102 °F (2001)
Min Temperature 63 °F 56 °F 48 °F (2000)
Degree Days  
Heating Degree Days 0 0  
Month to date heating degree days 0 1  
Since 1 June heating degree days 36 71  
Since 1 July heating degree days 0 1  
Cooling Degree Days 11 7  
Month to date cooling degree days 69 35  
Year to date cooling degree days 269 161  
Since 1 June cooling degree days 242 141  
Growing Degree Days 26 (Base 50)    
Moisture  
Dew Point 54 °F    
Average Humidity 54    
Maximum Humidity 78    
Minimum Humidity 29    
Precipitation  
Precipitation T in 0.03 in 0.06 in (2006)
Month to date precipitation 0.03 0.15  
Year to date precipitation 2.33 4.52  
Sea Level Pressure  
Sea Level Pressure 29.72 in    
Wind  
Wind Speed 7 mph (NW)    
Max Wind Speed 36 mph    
Max Gust Speed 43 mph    
Visibility 10 miles    
Events Rain    
T = Trace of Precipitation, MM = Missing Value Source: NWS Daily Summary

Daily Weather History Graph

Daily Weather History Graph

Search for Another Location

Airport:

Trip Planner

Search our weather history database for the weather conditions in past years. The results will help you decide how hot, cold, wet, or windy it might be!

Date:

Astronomy

Jul. 05, 2013 Rise Set
Actual Time 5:33 AM MDT 8:59 PM MDT
Civil Twilight 4:57 AM MDT 9:35 PM MDT
Nautical Twilight 4:09 AM MDT 10:23 PM MDT
Astronomical Twilight 3:09 AM MDT 11:23 PM MDT
Moon 3:38 AM MDT (7/5) 6:54 PM MDT (7/5)
Length of Visible Light 16h 38m
Length of Day
15h 25m
Waning Crescent, 6% of the Moon is Illuminated
Jul 5
Waning Crescent
Jul 8
New
Jul 15
First Quarter
Jul 22
Full
Jul 29
Last Quarter

Hourly Weather History & Observations

Time (MDT) Temp. Heat Index Dew Point Humidity Pressure Visibility Wind Dir Wind Speed Gust Speed Precip Events Conditions
12:53 AM 72.0 °F - 55.9 °F 57% 29.74 in 10.0 mi SSE 9.2 mph - N/A   Clear
1:53 AM 68.0 °F - 57.9 °F 70% 29.75 in 10.0 mi SW 4.6 mph - N/A   Clear
2:53 AM 66.0 °F - 57.9 °F 75% 29.74 in 10.0 mi East 4.6 mph - N/A   Clear
3:53 AM 64.9 °F - 57.9 °F 78% 29.73 in 10.0 mi SE 3.5 mph - N/A   Clear
4:53 AM 64.0 °F - 57.0 °F 78% 29.73 in 10.0 mi ESE 3.5 mph - N/A   Clear
5:53 AM 64.0 °F - 57.0 °F 78% 29.74 in 10.0 mi Calm Calm - N/A   Clear
6:53 AM 64.9 °F - 57.0 °F 75% 29.76 in 10.0 mi ESE 3.5 mph - N/A   Clear
7:53 AM 68.0 °F - 55.9 °F 65% 29.75 in 10.0 mi East 3.5 mph - N/A   Clear
8:53 AM 70.0 °F - 57.0 °F 63% 29.74 in 10.0 mi SSW 5.8 mph - N/A   Clear
9:53 AM 73.0 °F - 57.0 °F 57% 29.74 in 10.0 mi South 4.6 mph - N/A   Clear
10:53 AM 77.0 °F - 55.9 °F 48% 29.73 in 10.0 mi Calm Calm - N/A   Clear
11:53 AM 82.0 °F 81.4 °F 55.0 °F 39% 29.71 in 10.0 mi Variable 3.5 mph - N/A   Clear
12:53 PM 82.9 °F 81.8 °F 53.1 °F 36% 29.71 in 10.0 mi Variable 5.8 mph - N/A   Clear
1:53 PM 84.9 °F 83.6 °F 55.0 °F 36% 29.68 in 10.0 mi North 9.2 mph 18.4 mph N/A   Clear
2:53 PM 88.0 °F - 52.0 °F 29% 29.69 in 10.0 mi NW 15.0 mph 21.9 mph N/A   Scattered Clouds
3:53 PM 80.1 °F - 51.1 °F 36% 29.69 in 10.0 mi NNW 18.4 mph 36.8 mph N/A   Partly Cloudy
4:53 PM 84.9 °F - 48.0 °F 28% 29.70 in 10.0 mi North 12.7 mph - N/A   Clear
5:53 PM 81.0 °F - 48.9 °F 33% 29.70 in 10.0 mi NNW 17.3 mph - 0.00 in Rain Light Rain
6:53 PM 81.0 °F - 48.9 °F 33% 29.66 in 10.0 mi North 4.6 mph - 0.00 in   Scattered Clouds
7:53 PM 79.0 °F - 50.0 °F 36% 29.68 in 10.0 mi NW 13.8 mph - N/A   Mostly Cloudy
8:53 PM 75.9 °F - 51.1 °F 42% 29.70 in 10.0 mi SW 4.6 mph - 0.00 in   Mostly Cloudy
9:53 PM 75.9 °F - 50.0 °F 40% 29.72 in 10.0 mi North 8.1 mph - N/A   Scattered Clouds
10:53 PM 73.0 °F - 52.0 °F 48% 29.74 in 10.0 mi West 3.5 mph - N/A   Clear
11:53 PM 71.1 °F - 55.0 °F 57% 29.76 in 10.0 mi WNW 6.9 mph - 0.00 in Rain Light Rain